Weather History for Spartanburg, SC

Change the Weather History Date:

Saturday, January 11, 2014

  Actual Average (KGSP) Record (KGSP)
Temperature  
Mean Temperature 52 °F 42 °F  
Max Temperature 59 °F 52 °F 79 °F (1949)
Min Temperature 44 °F 32 °F 2 °F (1982)
Degree Days  
Heating Degree Days 14 23  
Month to date heating degree days 253  
Since 1 July heating degree days 1456  
Cooling Degree Days 0 0  
Month to date cooling degree days 0  
Year to date cooling degree days 0  
Growing Degree Days 2 (Base 50)    
Moisture  
Dew Point 50 °F    
Average Humidity 94    
Maximum Humidity 100    
Minimum Humidity 58    
Precipitation  
Precipitation 2.33 in 0.13 in 2.67 in (1918)
Month to date precipitation 1.36  
Year to date precipitation 1.36  
Snow  
Snow 0.00 in 0.10 in 3.00 in (1996)
Month to date snowfall 0.8  
Since 1 July snowfall 1.3  
Snow Depth -    
Sea Level Pressure  
Sea Level Pressure 29.80 in    
Wind  
Wind Speed 4 mph (SW)    
Max Wind Speed 24 mph    
Max Gust Speed 33 mph    
Visibility 6 miles    
Events Fog , Rain , Thunderstorm    
T = Trace of Precipitation, MM = Missing Value Source: NWS Daily Summary

Daily Weather History Graph

Daily Weather History Graph

Search for Another Location

Airport:

Trip Planner

Search our weather history database for the weather conditions in past years. The results will help you decide how hot, cold, wet, or windy it might be!

Date:

Astronomy

Jan. 11, 2014 Rise Set
Actual Time 7:35 AM EST 5:35 PM EST
Civil Twilight 7:08 AM EST 6:03 PM EST
Nautical Twilight 6:37 AM EST 6:34 PM EST
Astronomical Twilight 6:06 AM EST 7:05 PM EST
Moon 2:17 PM EST (1/11) 3:41 AM EST (1/11)
Length of Visible Light 10h 55m
Length of Day
10h 00m
Waxing Gibbous, 83% of the Moon is Illuminated
Jan 11
Waxing Gibbous
Jan 15
Full
Jan 24
Last Quarter
Jan 30
New
Feb 6
First Quarter

Hourly Weather History & Observations

Time (EST) Temp. Windchill Dew Point Humidity Pressure Visibility Wind Dir Wind Speed Gust Speed Precip Events Conditions
12:15 AM 46.4 °F - 46.4 °F 100% 30.06 in 2.0 mi Calm Calm - N/A Rain Light Rain
12:35 AM 46.4 °F 45.2 °F 46.4 °F 100% 30.04 in 2.0 mi NE 3.5 mph - N/A   Light Drizzle
12:55 AM 46.4 °F - 46.4 °F 100% 30.03 in 2.5 mi Calm Calm - N/A   Overcast
1:15 AM 46.4 °F 43.5 °F 46.4 °F 100% 30.01 in 1.8 mi ENE 5.8 mph - N/A   Overcast
1:35 AM 44.6 °F - 44.6 °F 100% 30.01 in 2.0 mi Calm Calm - 0.01 in Rain , Thunderstorm Rain
1:55 AM 46.4 °F 43.5 °F 46.4 °F 100% 30.01 in 0.8 mi North 5.8 mph - 0.07 in Rain Heavy Rain
2:15 AM 46.4 °F - 46.4 °F 100% 30.00 in 4.0 mi Calm Calm - 0.06 in Rain Light Rain
2:35 AM 46.4 °F - 46.4 °F 100% 29.99 in 4.0 mi Calm Calm - 0.10 in   Overcast
2:55 AM 46.4 °F - 46.4 °F 100% 29.97 in 2.0 mi Calm Calm - 0.10 in Rain Rain
3:15 AM 46.4 °F - 46.4 °F 100% 29.96 in 2.0 mi Calm Calm - N/A   Light Drizzle
3:35 AM 46.4 °F 45.2 °F 46.4 °F 100% 29.95 in 2.0 mi NNE 3.5 mph - 0.01 in   Overcast
3:55 AM 46.4 °F - 46.4 °F 100% 29.94 in 1.8 mi Calm Calm - 0.01 in   Drizzle
4:15 AM 46.4 °F - 46.4 °F 100% 29.94 in 2.5 mi Calm Calm - 0.01 in Thunderstorm Unknown
4:35 AM 46.4 °F 45.2 °F 46.4 °F 100% 29.93 in 3.0 mi NE 3.5 mph - 0.01 in Thunderstorm Overcast
4:55 AM 46.4 °F 43.5 °F 46.4 °F 100% 29.90 in 3.0 mi NNE 5.8 mph - 0.03 in Rain , Thunderstorm Thunderstorms and Rain
5:15 AM 46.4 °F 44.3 °F 46.4 °F 100% 29.91 in 0.8 mi NNE 4.6 mph - 0.06 in Rain , Thunderstorm Thunderstorms and Rain
5:35 AM 46.4 °F 45.2 °F 46.4 °F 100% 29.92 in 0.5 mi SSW 3.5 mph - 0.15 in Rain , Thunderstorm Heavy Thunderstorms and Rain
5:55 AM 46.4 °F 44.3 °F 46.4 °F 100% 29.90 in 1.5 mi North 4.6 mph - 0.27 in Rain , Thunderstorm Thunderstorms and Rain
6:15 AM 46.4 °F - 46.4 °F 100% 29.90 in 1.2 mi Calm Calm - 0.10 in Rain , Thunderstorm Heavy Thunderstorms and Rain
6:35 AM 46.4 °F 45.2 °F 46.4 °F 100% 29.87 in 0.5 mi ESE 3.5 mph - 0.23 in Rain , Thunderstorm Heavy Thunderstorms and Rain
6:55 AM 46.4 °F - 46.4 °F 100% 29.86 in 1.5 mi Calm Calm - 0.35 in Rain , Thunderstorm Heavy Thunderstorms and Rain
7:15 AM 46.4 °F - 46.4 °F 100% 29.84 in 2.0 mi Calm Calm - 0.10 in Rain Heavy Rain
7:35 AM 46.4 °F - 46.4 °F 100% 29.83 in 4.0 mi Calm Calm - 0.21 in   Overcast
7:55 AM 46.4 °F 44.3 °F 46.4 °F 100% 29.82 in 1.8 mi SE 4.6 mph - 0.33 in   Overcast
8:15 AM 48.2 °F - 48.2 °F 100% 29.82 in 1.5 mi Calm Calm - 0.08 in   Overcast
8:35 AM 48.2 °F - 48.2 °F 100% 29.80 in 0.5 mi SE 3.5 mph - 0.18 in Fog Fog
8:55 AM 50.0 °F - 50.0 °F 100% 29.79 in 0.2 mi SE 3.5 mph - 0.27 in Fog Fog
9:15 AM 50.0 °F - 50.0 °F 100% 29.77 in 0.2 mi Calm Calm - 0.06 in Fog Fog
9:35 AM 51.8 °F - 51.8 °F 100% 29.75 in 0.2 mi Calm Calm - 0.13 in Fog Fog
9:55 AM 53.6 °F - 53.6 °F 100% 29.72 in 0.2 mi South 4.6 mph - 0.19 in Fog Fog
10:15 AM 59.0 °F - 59.0 °F 100% 29.79 in 10.0 mi West 24.2 mph 33.4 mph 0.03 in   Overcast
10:35 AM 57.2 °F - 57.2 °F 100% 29.79 in 10.0 mi WSW 15.0 mph 23.0 mph 0.09 in Rain Light Rain
10:55 AM 57.2 °F - 57.2 °F 100% 29.80 in 10.0 mi WSW 13.8 mph 20.7 mph 0.14 in Rain Light Rain
11:15 AM 55.4 °F - 55.4 °F 100% 29.79 in 10.0 mi WSW 10.4 mph - 0.04 in Rain Rain
11:35 AM 55.4 °F - 55.4 °F 100% 29.78 in 10.0 mi WSW 5.8 mph - 0.09 in Rain Rain
11:55 AM 55.4 °F - 55.4 °F 100% 29.78 in 7.0 mi SW 6.9 mph - 0.13 in Rain Rain
12:15 PM 55.4 °F - 55.4 °F 100% 29.77 in 3.0 mi SW 3.5 mph - 0.04 in Rain Rain
12:35 PM 55.4 °F - 55.4 °F 100% 29.75 in 5.0 mi Calm Calm - 0.08 in Rain Rain
12:55 PM 55.4 °F - 55.4 °F 100% 29.74 in 2.5 mi South 3.5 mph - 0.13 in Rain Heavy Rain
1:15 PM 57.2 °F - 57.2 °F 100% 29.73 in 2.5 mi SSW 3.5 mph - 0.04 in Rain Heavy Rain
1:35 PM 57.2 °F - 57.2 °F 100% 29.73 in 4.0 mi SSW 4.6 mph - 0.10 in Rain Rain
1:55 PM 57.2 °F - 57.2 °F 100% 29.67 in 5.0 mi SSE 8.1 mph - 0.15 in Rain Rain
2:15 PM 57.2 °F - 57.2 °F 100% 29.68 in 10.0 mi SSW 4.6 mph - 0.05 in Rain Rain
2:35 PM 57.2 °F - 57.2 °F 100% 29.70 in 10.0 mi SSW 8.1 mph - 0.09 in   Scattered Clouds
2:55 PM 57.2 °F - 57.2 °F 100% 29.67 in 10.0 mi SW 6.9 mph - 0.13 in   Mostly Cloudy
3:15 PM 57.2 °F - 57.2 °F 100% 29.66 in 10.0 mi SW 8.1 mph - 0.02 in   Mostly Cloudy
3:35 PM 59.0 °F - 59.0 °F 100% 29.66 in 10.0 mi SW 6.9 mph - 0.03 in   Scattered Clouds
3:55 PM 59.0 °F - 59.0 °F 100% 29.66 in 10.0 mi SW 8.1 mph - 0.03 in   Mostly Cloudy
4:15 PM 59.0 °F - 59.0 °F 100% 29.67 in 10.0 mi SW 8.1 mph - N/A   Overcast
4:35 PM 59.0 °F - 59.0 °F 100% 29.65 in 10.0 mi SW 4.6 mph - N/A   Overcast
4:55 PM 59.0 °F - 59.0 °F 100% 29.64 in 10.0 mi SW 6.9 mph - N/A   Mostly Cloudy
5:15 PM 59.0 °F - 59.0 °F 100% 29.64 in 10.0 mi SSW 5.8 mph - N/A   Scattered Clouds
5:35 PM 59.0 °F - 59.0 °F 100% 29.65 in 10.0 mi SW 3.5 mph - N/A   Scattered Clouds
5:55 PM 57.2 °F - 57.2 °F 100% 29.65 in 10.0 mi SSW 3.5 mph - N/A   Mostly Cloudy
6:15 PM 57.2 °F - 57.2 °F 100% 29.65 in 10.0 mi SSW 4.6 mph - N/A   Mostly Cloudy
6:35 PM 55.4 °F - 55.4 °F 100% 29.66 in 10.0 mi Calm Calm - N/A   Scattered Clouds
6:55 PM 55.4 °F - 55.4 °F 100% 29.66 in 10.0 mi South 3.5 mph - N/A   Scattered Clouds
7:15 PM 55.4 °F - 55.4 °F 100% 29.67 in 10.0 mi SW 8.1 mph - N/A   Mostly Cloudy
7:35 PM 55.4 °F - 55.4 °F 100% 29.68 in 10.0 mi SW 9.2 mph - N/A   Scattered Clouds
7:55 PM 55.4 °F - 55.4 °F 100% 29.69 in 10.0 mi SW 10.4 mph - N/A   Clear
8:15 PM 55.4 °F - 55.4 °F 100% 29.69 in 10.0 mi SW 9.2 mph - N/A   Clear
8:35 PM 55.4 °F - 51.8 °F 88% 29.70 in 10.0 mi WSW 8.1 mph - N/A   Clear
8:55 PM 55.4 °F - 46.4 °F 72% 29.70 in 10.0 mi WSW 10.4 mph - N/A   Clear
9:15 PM 53.6 °F - 42.8 °F 67% 29.72 in 10.0 mi West 8.1 mph - N/A   Clear
9:35 PM 53.6 °F - 41.0 °F 62% 29.73 in 10.0 mi West 8.1 mph - N/A   Clear
9:55 PM 53.6 °F - 39.2 °F 58% 29.74 in 10.0 mi West 11.5 mph 16.1 mph N/A   Clear
10:15 PM 51.8 °F - 37.4 °F 58% 29.75 in 10.0 mi West 10.4 mph 16.1 mph N/A   Clear
10:35 PM 51.8 °F - 37.4 °F 58% 29.77 in 10.0 mi West 11.5 mph - N/A   Clear
10:55 PM 51.8 °F - 37.4 °F 58% 29.77 in 10.0 mi West 11.5 mph 17.3 mph N/A   Clear
11:15 PM 51.8 °F - 37.4 °F 58% 29.78 in 10.0 mi West 8.1 mph - N/A   Clear
11:35 PM 51.8 °F - 37.4 °F 58% 29.79 in 10.0 mi WNW 8.1 mph - N/A   Clear
11:55 PM 50.0 °F - 37.4 °F 62% 29.80 in 10.0 mi WNW 9.2 mph - N/A   Clear